Regional Weather Roundup
Issued by NWS Green Bay, WI

Home | Current Version | Previous Version | Graphics & Text | Print | Product List | Glossary Off
Versions: 1 2 3 4 5 6 7 8 9 10 11 12 13 14 15 16 17 18 19 20 21 22 23 24 25 26 27 28 29 30 31 32 33 34 35 36 37 38 39 40 41 42 43 44 45 46 47 48 49 50

658
ASUS43 KGRB 222311
RWRGRB

NORTH-CENTRAL AND NORTHEAST WISCONSIN REGIONAL WEATHER ROUNDUP
NATIONAL WEATHER SERVICE GREEN BAY WI
500 PM CST THU FEB 22 2018

WIZ005-009-010>012-018-019-230000-
NORTH CENTRAL WISCONSIN

CITY           SKY/WX    TMP DP  RH WIND       PRES   REMARKS
IRONWOOD       CLOUDY    31  13  47 SE6       30.46R
MANITOWISH WTR CLOUDY    30  11  46 CALM      30.44S
ARBOR VITAE    CLOUDY    32  11  41 S3        30.45R
EAGLE RIVER    MOCLDY    30   8  39 S7        30.46R
LAND O LAKES   CLOUDY    31   9  39 SE7       30.47R
RHINELANDER    CLOUDY    30  12  47 SE6       30.47R
PHILLIPS       CLOUDY    31  11  44 SE6       30.45R
ANTIGO         CLOUDY    27  16  64 SE7       30.49R
TOMAHAWK       CLOUDY    29  10  45 SE3       30.47S
MERRILL        CLOUDY    30  14  50 SE6       30.48S
$$

WIZ013-073-230000-
NORTHEAST WISCONSIN

CITY           SKY/WX    TMP DP  RH WIND       PRES   REMARKS
IRON MOUNTAIN  CLOUDY    29  20  69 SE10      30.51R
MARINETTE      CLOUDY    28  21  75 NE9       30.57R
OCONTO         CLOUDY    29  20  68 NE6       30.55R
$$

WIZ017-030-035>037-045-230000-
CENTRAL WISCONSIN

CITY           SKY/WX    TMP DP  RH WIND       PRES   REMARKS
MEDFORD        CLOUDY    28  11  48 E6        30.45F
WAUSAU         CLOUDY    29  14  53 SE12      30.47R
MOSINEE        FLURRIES  28  16  59 E8        30.48S
MARSHFIELD     CLOUDY    28  16  60 E8        30.45S
WISC RAPIDS    CLOUDY    30  18  60 E5        30.49F
STEVENS POINT  CLOUDY    27  18  67 E7        30.50S
WAUPACA        CLOUDY    32  22  65 NE5       30.51F
SHAWANO        CLOUDY    31  22  69 E5        30.53F
CLINTONVILLE   CLOUDY    31  18  58 E6        30.52F
WAUTOMA        NOT AVBL
$$

WIZ038-039-048-051-230000-
FOX VALLEY

CITY           SKY/WX    TMP DP  RH WIND       PRES   REMARKS
NWS GREEN BAY  CLOUDY    30  23  75 NE12      30.53S
APPLETON       CLOUDY    30  18  59 NE8       30.49S
OSHKOSH        CLOUDY    32  23  69 E8        30.49S
FOND DU LAC    CLOUDY    33  21  61 E13       30.48F
$$

WIZ022-050-052-230000-
EAST CENTRAL WISCONSIN

CITY           SKY/WX    TMP DP  RH WIND       PRES   REMARKS
EPHRAIM        CLOUDY    28  24  82 E9        30.55R
WASHINGTON ISL CLOUDY    28  23  80 E3        30.57R
STURGEON BAY   CLOUDY    30  24  78 NE7       30.56R
MANITOWOC      MIX PCPN  31  25  78 NE6       30.53S
SHEBOYGAN      MIX PCPN  32  27  81 NE13      30.49F
$$

LMZ563-521-522-541>543-230000-
LAKESHORE

STATION/POSITION TIME  TEMP    WIND        PRES    VSBY  WAVE
                       AIR SEA DIR/SP/G                  HT/PER
                 (UTC) (F)     (DEG/KT/KT) (MB)    (MI)  (FT/S)
SHEBOYGAN LKSHOR 2300   32      40/ 15/ 15 1033.3F
KEWAUNEE LKSHORE 2242   31      70/  5/ 10 1033.3R
NORTHPORT PIER   2240   29                 1034.5R
MENOMINEE LKSHOR 2242   27     360/ 11/ 13 1034.5R
$$




USA.gov is the U.S. government's official web portal to all federal, state and local government web resources and services.